Time,TemperatureF,DewpointF,PressureIn,WindDirection,WindDirectionDegrees,WindSpeedMPH,WindSpeedGustMPH,Humidity,HourlyPrecipIn,Conditions,Clouds,dailyrainin,SoftwareType,DateUTC
2013-10-09 00:00:00,63.0,41.4,29.21,SW,224,0.0,0.0,45,0.00,,---,0.00,VWS V14.00,2013-10-09 05:00:00,
2013-10-09 00:03:00,62.8,41.2,29.21,SW,224,0.0,0.0,45,0.00,,---,0.00,VWS V14.00,2013-10-09 05:03:00,
2013-10-09 00:09:00,62.8,41.2,29.21,SW,224,0.0,0.0,45,0.00,,---,0.00,VWS V14.00,2013-10-09 05:09:00,
2013-10-09 00:12:00,62.8,41.2,29.21,SW,224,0.0,0.0,45,0.00,,---,0.00,VWS V14.00,2013-10-09 05:12:00,
2013-10-09 00:15:00,62.7,41.0,29.21,SW,224,0.0,0.0,45,0.00,,---,0.00,VWS V14.00,2013-10-09 05:15:00,
2013-10-09 00:18:00,62.7,41.0,29.21,SW,224,0.0,0.0,45,0.00,,---,0.00,VWS V14.00,2013-10-09 05:18:00,
2013-10-09 00:21:00,62.5,40.9,29.21,SW,224,0.0,0.0,45,0.00,,---,0.00,VWS V14.00,2013-10-09 05:21:00,
2013-10-09 00:24:00,62.5,40.9,29.21,SW,224,0.0,0.0,45,0.00,,---,0.00,VWS V14.00,2013-10-09 05:24:00,
2013-10-09 00:27:00,62.5,41.4,29.21,SW,224,0.0,0.0,46,0.00,,---,0.00,VWS V14.00,2013-10-09 05:27:00,
2013-10-09 00:32:00,62.3,41.3,29.21,SW,224,0.0,0.0,46,0.00,,---,0.00,VWS V14.00,2013-10-09 05:32:00,
2013-10-09 00:36:00,62.3,41.3,29.21,SW,224,0.0,0.0,46,0.00,,---,0.00,VWS V14.00,2013-10-09 05:36:00,
2013-10-09 00:39:00,62.3,41.3,29.21,SW,224,0.0,0.0,46,0.00,,---,0.00,VWS V14.00,2013-10-09 05:39:00,
2013-10-09 00:42:00,62.1,41.1,29.21,SW,224,0.0,0.0,46,0.00,,---,0.00,VWS V14.00,2013-10-09 05:42:00,
2013-10-09 00:45:00,62.1,41.1,29.21,SW,224,0.0,0.0,46,0.00,,---,0.00,VWS V14.00,2013-10-09 05:45:00,
2013-10-09 00:47:00,62.1,41.1,29.21,SW,224,0.0,0.0,46,0.00,,---,0.00,VWS V14.00,2013-10-09 05:47:00,
2013-10-09 00:48:00,62.1,41.1,29.21,SW,224,0.0,0.0,46,0.00,,---,0.00,VWS V14.00,2013-10-09 05:48:00,
2013-10-09 00:51:00,61.9,41.0,29.21,SW,224,0.0,0.0,46,0.00,,---,0.00,VWS V14.00,2013-10-09 05:51:00,
2013-10-09 00:54:00,61.8,40.8,29.21,SW,224,0.0,0.0,46,0.00,,---,0.00,VWS V14.00,2013-10-09 05:54:00,
2013-10-09 01:00:00,61.8,40.8,29.21,SW,224,0.0,0.0,46,0.00,,---,0.00,VWS V14.00,2013-10-09 06:00:00,
2013-10-09 01:03:00,61.6,40.6,29.21,SW,224,0.0,0.0,46,0.00,,---,0.00,VWS V14.00,2013-10-09 06:03:00,
2013-10-09 01:06:00,61.6,40.6,29.21,SW,224,0.0,0.0,46,0.00,,---,0.00,VWS V14.00,2013-10-09 06:06:00,
2013-10-09 01:09:00,61.6,40.6,29.21,SW,224,0.0,0.0,46,0.00,,---,0.00,VWS V14.00,2013-10-09 06:09:00,
2013-10-09 01:12:00,61.4,41.0,29.21,SW,224,0.0,0.0,47,0.00,,---,0.00,VWS V14.00,2013-10-09 06:12:00,
2013-10-09 01:17:00,61.4,41.0,29.21,SW,224,0.0,0.0,47,0.00,,---,0.00,VWS V14.00,2013-10-09 06:17:00,
2013-10-09 01:18:00,61.4,41.0,29.21,SW,224,0.0,0.0,47,0.00,,---,0.00,VWS V14.00,2013-10-09 06:18:00,
2013-10-09 01:24:00,61.2,40.8,29.21,SW,224,0.0,0.0,47,0.00,,---,0.00,VWS V14.00,2013-10-09 06:24:00,
2013-10-09 01:27:00,61.0,40.7,29.21,SW,224,0.0,0.0,47,0.00,,---,0.00,VWS V14.00,2013-10-09 06:27:00,
2013-10-09 01:30:00,61.0,40.7,29.21,SW,224,0.0,0.0,47,0.00,,---,0.00,VWS V14.00,2013-10-09 06:30:00,
2013-10-09 01:33:00,61.0,40.7,29.21,SW,224,0.0,0.0,47,0.00,,---,0.00,VWS V14.00,2013-10-09 06:33:00,
2013-10-09 01:36:00,61.0,40.7,29.21,SW,224,0.0,0.0,47,0.00,,---,0.00,VWS V14.00,2013-10-09 06:36:00,
2013-10-09 01:39:00,60.9,41.1,29.21,SW,224,0.0,0.0,48,0.00,,---,0.00,VWS V14.00,2013-10-09 06:39:00,
2013-10-09 01:42:00,60.7,40.9,29.21,SW,224,0.0,0.0,48,0.00,,---,0.00,VWS V14.00,2013-10-09 06:42:00,
2013-10-09 01:45:00,60.7,40.9,29.21,SW,224,0.0,0.0,48,0.00,,---,0.00,VWS V14.00,2013-10-09 06:45:00,
2013-10-09 01:48:00,60.7,40.9,29.21,SW,224,0.0,0.0,48,0.00,,---,0.00,VWS V14.00,2013-10-09 06:48:00,
2013-10-09 01:51:00,60.7,40.9,29.21,SW,224,0.0,0.0,48,0.00,,---,0.00,VWS V14.00,2013-10-09 06:51:00,
2013-10-09 01:54:00,60.5,40.7,29.21,SW,224,0.0,0.0,48,0.00,,---,0.00,VWS V14.00,2013-10-09 06:54:00,
2013-10-09 01:57:00,60.3,40.6,29.21,SW,224,0.0,0.0,48,0.00,,---,0.00,VWS V14.00,2013-10-09 06:57:00,
2013-10-09 02:00:00,60.3,40.6,29.21,SW,224,0.0,0.0,48,0.00,,---,0.00,VWS V14.00,2013-10-09 07:00:00,
2013-10-09 02:03:00,60.1,40.9,29.21,SW,224,0.0,0.0,49,0.00,,---,0.00,VWS V14.00,2013-10-09 07:03:00,
2013-10-09 02:06:00,60.1,40.9,29.21,SW,224,0.0,0.0,49,0.00,,---,0.00,VWS V14.00,2013-10-09 07:06:00,
2013-10-09 02:09:00,60.1,40.9,29.21,SW,224,0.0,0.0,49,0.00,,---,0.00,VWS V14.00,2013-10-09 07:09:00,
2013-10-09 02:15:00,60.1,40.9,29.21,SW,224,0.0,0.0,49,0.00,,---,0.00,VWS V14.00,2013-10-09 07:15:00,
2013-10-09 02:18:00,60.0,41.3,29.21,SW,224,0.0,0.0,50,0.00,,---,0.00,VWS V14.00,2013-10-09 07:18:00,
2013-10-09 02:21:00,60.0,41.3,29.21,SW,224,0.0,0.0,50,0.00,,---,0.00,VWS V14.00,2013-10-09 07:21:00,
2013-10-09 02:24:00,60.0,41.8,29.21,SW,224,0.0,0.0,51,0.00,,---,0.00,VWS V14.00,2013-10-09 07:24:00,
2013-10-09 02:30:00,59.8,41.6,29.21,SW,224,0.0,0.0,51,0.00,,---,0.00,VWS V14.00,2013-10-09 07:30:00,
2013-10-09 02:33:00,59.8,41.6,29.21,SW,224,0.0,0.0,51,0.00,,---,0.00,VWS V14.00,2013-10-09 07:33:00,
2013-10-09 02:36:00,59.8,41.6,29.21,SW,224,0.0,0.0,51,0.00,,---,0.00,VWS V14.00,2013-10-09 07:36:00,
2013-10-09 02:42:00,59.4,41.8,29.21,SW,224,0.0,0.0,52,0.00,,---,0.00,VWS V14.00,2013-10-09 07:42:00,
2013-10-09 02:47:00,59.4,42.3,29.21,SW,224,0.0,0.0,53,0.00,,---,0.00,VWS V14.00,2013-10-09 07:47:00,
2013-10-09 02:48:00,59.4,42.3,29.21,SW,224,0.0,0.0,53,0.00,,---,0.00,VWS V14.00,2013-10-09 07:48:00,
2013-10-09 02:51:00,59.4,42.3,29.21,SW,224,0.0,0.0,53,0.00,,---,0.00,VWS V14.00,2013-10-09 07:51:00,
2013-10-09 02:54:00,59.4,42.3,29.21,SW,224,0.0,0.0,53,0.00,,---,0.00,VWS V14.00,2013-10-09 07:54:00,
2013-10-09 02:57:00,59.2,42.1,29.21,SW,224,0.0,0.0,53,0.00,,---,0.00,VWS V14.00,2013-10-09 07:57:00,
2013-10-09 03:00:00,59.2,42.1,29.21,SW,224,0.0,0.0,53,0.00,,---,0.00,VWS V14.00,2013-10-09 08:00:00,
2013-10-09 03:03:00,59.2,42.6,29.21,SW,224,0.0,0.0,54,0.00,,---,0.00,VWS V14.00,2013-10-09 08:03:00,
2013-10-09 03:06:00,59.2,42.6,29.21,SW,224,0.0,0.0,54,0.00,,---,0.00,VWS V14.00,2013-10-09 08:06:00,
2013-10-09 03:09:00,59.1,42.5,29.21,SW,224,0.0,0.0,54,0.00,,---,0.00,VWS V14.00,2013-10-09 08:09:00,
2013-10-09 03:12:00,59.1,42.9,29.21,SW,224,0.0,0.0,55,0.00,,---,0.00,VWS V14.00,2013-10-09 08:12:00,
2013-10-09 03:15:00,59.1,42.9,29.21,SW,224,0.0,0.0,55,0.00,,---,0.00,VWS V14.00,2013-10-09 08:15:00,
2013-10-09 03:18:00,59.1,42.9,29.21,SW,224,0.0,0.0,55,0.00,,---,0.00,VWS V14.00,2013-10-09 08:18:00,
2013-10-09 03:21:00,58.9,42.8,29.21,SW,224,0.0,0.0,55,0.00,,---,0.00,VWS V14.00,2013-10-09 08:21:00,
2013-10-09 03:24:00,58.9,42.8,29.21,SW,224,0.0,0.0,55,0.00,,---,0.00,VWS V14.00,2013-10-09 08:24:00,
2013-10-09 03:27:00,58.7,42.1,29.21,SW,224,0.0,0.0,54,0.00,,---,0.00,VWS V14.00,2013-10-09 08:27:00,
2013-10-09 03:30:00,58.7,42.1,29.21,SW,224,0.0,0.0,54,0.00,,---,0.00,VWS V14.00,2013-10-09 08:30:00,
2013-10-09 03:33:00,58.7,42.1,29.21,SW,224,0.0,0.0,54,0.00,,---,0.00,VWS V14.00,2013-10-09 08:33:00,
2013-10-09 03:36:00,58.7,42.1,29.21,SW,224,0.0,0.0,54,0.00,,---,0.00,VWS V14.00,2013-10-09 08:36:00,
2013-10-09 03:42:00,58.7,42.1,29.21,SW,224,0.0,0.0,54,0.00,,---,0.00,VWS V14.00,2013-10-09 08:42:00,
2013-10-09 03:48:00,58.7,42.1,29.21,SW,224,0.0,0.0,54,0.00,,---,0.00,VWS V14.00,2013-10-09 08:48:00,
2013-10-09 03:51:00,58.7,42.1,29.21,SW,224,0.0,0.0,54,0.00,,---,0.00,VWS V14.00,2013-10-09 08:51:00,
2013-10-09 03:57:00,58.7,42.1,29.21,SW,224,0.0,0.0,54,0.00,,---,0.00,VWS V14.00,2013-10-09 08:57:00,
2013-10-09 04:00:00,58.7,42.1,29.21,SW,224,0.0,0.0,54,0.00,,---,0.00,VWS V14.00,2013-10-09 09:00:00,
2013-10-09 04:03:00,58.2,42.1,29.21,SW,224,0.0,0.0,55,0.00,,---,0.00,VWS V14.00,2013-10-09 09:03:00,
2013-10-09 04:06:00,58.2,42.1,29.21,SW,224,0.0,0.0,55,0.00,,---,0.00,VWS V14.00,2013-10-09 09:06:00,
2013-10-09 04:09:00,58.2,42.1,29.21,SW,224,0.0,0.0,55,0.00,,---,0.00,VWS V14.00,2013-10-09 09:09:00,
2013-10-09 04:12:00,58.2,42.1,29.21,SW,224,0.0,0.0,55,0.00,,---,0.00,VWS V14.00,2013-10-09 09:12:00,
2013-10-09 04:17:00,58.2,42.1,29.21,SW,224,0.0,0.0,55,0.00,,---,0.00,VWS V14.00,2013-10-09 09:17:00,
2013-10-09 04:18:00,58.2,42.1,29.21,SW,224,0.0,0.0,55,0.00,,---,0.00,VWS V14.00,2013-10-09 09:18:00,
2013-10-09 04:21:00,58.0,42.4,29.21,SW,224,0.0,0.0,56,0.00,,---,0.00,VWS V14.00,2013-10-09 09:21:00,
2013-10-09 04:24:00,58.0,42.4,29.21,SW,224,0.0,0.0,56,0.00,,---,0.00,VWS V14.00,2013-10-09 09:24:00,
2013-10-09 04:27:00,58.0,42.4,29.21,SW,224,0.0,0.0,56,0.00,,---,0.00,VWS V14.00,2013-10-09 09:27:00,
2013-10-09 04:30:00,58.0,42.4,29.21,SW,224,0.0,0.0,56,0.00,,---,0.00,VWS V14.00,2013-10-09 09:30:00,
2013-10-09 04:32:00,58.0,42.4,29.21,SW,224,0.0,0.0,56,0.00,,---,0.00,VWS V14.00,2013-10-09 09:32:00,
2013-10-09 04:33:00,58.0,42.4,29.21,SW,224,0.0,0.0,56,0.00,,---,0.00,VWS V14.00,2013-10-09 09:33:00,
2013-10-09 04:36:00,58.0,42.4,29.21,SW,224,0.0,0.0,56,0.00,,---,0.00,VWS V14.00,2013-10-09 09:36:00,
2013-10-09 04:39:00,58.0,42.4,29.21,SW,224,0.0,0.0,56,0.00,,---,0.00,VWS V14.00,2013-10-09 09:39:00,
2013-10-09 04:42:00,58.0,42.4,29.21,SW,224,0.0,0.0,56,0.00,,---,0.00,VWS V14.00,2013-10-09 09:42:00,
2013-10-09 04:45:00,58.0,42.4,29.21,SW,224,0.0,0.0,56,0.00,,---,0.00,VWS V14.00,2013-10-09 09:45:00,
2013-10-09 04:48:00,58.0,42.4,29.21,SW,224,0.0,0.0,56,0.00,,---,0.00,VWS V14.00,2013-10-09 09:48:00,
2013-10-09 04:51:00,58.0,42.4,29.21,SW,224,0.0,0.0,56,0.00,,---,0.00,VWS V14.00,2013-10-09 09:51:00,
2013-10-09 04:54:00,58.0,42.4,29.21,SW,224,0.0,0.0,56,0.00,,---,0.00,VWS V14.00,2013-10-09 09:54:00,
2013-10-09 04:57:00,58.0,42.4,29.21,SW,224,0.0,0.0,56,0.00,,---,0.00,VWS V14.00,2013-10-09 09:57:00,
2013-10-09 05:00:00,58.0,42.4,29.21,SW,224,0.0,0.0,56,0.00,,---,0.00,VWS V14.00,2013-10-09 10:00:00,
2013-10-09 05:03:00,58.0,42.4,29.21,SW,224,0.0,0.0,56,0.00,,---,0.00,VWS V14.00,2013-10-09 10:03:00,
2013-10-09 05:06:00,58.0,42.4,29.21,SW,224,0.0,0.0,56,0.00,,---,0.00,VWS V14.00,2013-10-09 10:06:00,
2013-10-09 05:09:00,58.0,42.4,29.21,SW,224,0.0,0.0,56,0.00,,---,0.00,VWS V14.00,2013-10-09 10:09:00,
2013-10-09 05:12:00,58.0,42.4,29.21,SW,224,0.0,0.0,56,0.00,,---,0.00,VWS V14.00,2013-10-09 10:12:00,
2013-10-09 05:15:00,58.0,42.4,29.21,SW,224,0.0,0.0,56,0.00,,---,0.00,VWS V14.00,2013-10-09 10:15:00,
2013-10-09 05:18:00,58.0,42.4,29.21,SW,224,0.0,0.0,56,0.00,,---,0.00,VWS V14.00,2013-10-09 10:18:00,
2013-10-09 05:22:00,58.0,42.4,29.21,SW,224,0.0,0.0,56,0.00,,---,0.00,VWS V14.00,2013-10-09 10:22:00,
2013-10-09 05:25:00,58.0,42.4,29.23,SW,224,0.0,0.0,56,0.00,,---,0.00,VWS V14.00,2013-10-09 10:25:00,
2013-10-09 05:28:00,58.0,42.4,29.23,SW,224,0.0,0.0,56,0.00,,---,0.00,VWS V14.00,2013-10-09 10:28:00,
2013-10-09 05:31:00,58.0,42.4,29.23,SW,224,0.0,0.0,56,0.00,,---,0.00,VWS V14.00,2013-10-09 10:31:00,
2013-10-09 05:32:00,58.0,42.4,29.23,SW,224,0.0,0.0,56,0.00,,---,0.00,VWS V14.00,2013-10-09 10:32:00,
2013-10-09 05:34:00,58.0,42.4,29.23,SW,224,0.0,0.0,56,0.00,,---,0.00,VWS V14.00,2013-10-09 10:34:00,
2013-10-09 05:40:00,58.0,42.4,29.23,SW,224,0.0,0.0,56,0.00,,---,0.00,VWS V14.00,2013-10-09 10:40:00,
2013-10-09 05:43:00,58.0,42.4,29.23,SW,224,0.0,0.0,56,0.00,,---,0.00,VWS V14.00,2013-10-09 10:43:00,
2013-10-09 05:46:00,58.0,42.4,29.23,SW,224,0.0,0.0,56,0.00,,---,0.00,VWS V14.00,2013-10-09 10:46:00,
2013-10-09 05:52:00,58.0,42.4,29.23,SW,224,0.0,0.0,56,0.00,,---,0.00,VWS V14.00,2013-10-09 10:52:00,
2013-10-09 05:55:00,58.0,42.4,29.23,SW,224,0.0,0.0,56,0.00,,---,0.00,VWS V14.00,2013-10-09 10:55:00,
2013-10-09 06:01:00,58.0,42.4,29.23,SW,224,0.0,0.0,56,0.00,,---,0.00,VWS V14.00,2013-10-09 11:01:00,
2013-10-09 06:04:00,58.0,42.4,29.23,SW,224,0.0,0.0,56,0.00,,---,0.00,VWS V14.00,2013-10-09 11:04:00,
2013-10-09 06:10:00,58.0,42.4,29.23,SW,224,0.0,0.0,56,0.00,,---,0.00,VWS V14.00,2013-10-09 11:10:00,
2013-10-09 06:13:00,58.0,42.4,29.23,SW,224,0.0,0.0,56,0.00,,---,0.00,VWS V14.00,2013-10-09 11:13:00,
2013-10-09 06:16:00,56.4,42.2,29.23,SW,224,0.0,0.0,59,0.00,,---,0.00,VWS V14.00,2013-10-09 11:16:00,
2013-10-09 06:18:00,56.4,42.2,29.23,SW,224,0.0,0.0,59,0.00,,---,0.00,VWS V14.00,2013-10-09 11:18:00,
2013-10-09 06:22:00,56.4,42.2,29.23,SW,224,0.0,0.0,59,0.00,,---,0.00,VWS V14.00,2013-10-09 11:22:00,
2013-10-09 06:25:00,56.4,42.2,29.23,SW,224,0.0,0.0,59,0.00,,---,0.00,VWS V14.00,2013-10-09 11:25:00,
2013-10-09 06:31:00,56.4,42.2,29.23,SW,224,0.0,0.0,59,0.00,,---,0.00,VWS V14.00,2013-10-09 11:31:00,
2013-10-09 06:32:00,56.4,42.2,29.23,SW,224,0.0,0.0,59,0.00,,---,0.00,VWS V14.00,2013-10-09 11:32:00,
2013-10-09 06:34:00,56.4,42.2,29.23,SW,224,0.0,0.0,59,0.00,,---,0.00,VWS V14.00,2013-10-09 11:34:00,
2013-10-09 06:40:00,56.4,42.2,29.23,SW,224,0.0,0.0,59,0.00,,---,0.00,VWS V14.00,2013-10-09 11:40:00,
2013-10-09 06:43:00,56.2,42.5,29.23,SW,224,0.0,0.0,60,0.00,,---,0.00,VWS V14.00,2013-10-09 11:43:00,
2013-10-09 06:46:00,56.2,42.5,29.23,SW,224,0.0,0.0,60,0.00,,---,0.00,VWS V14.00,2013-10-09 11:46:00,
2013-10-09 06:48:00,56.2,42.5,29.23,SW,224,0.0,0.0,60,0.00,,---,0.00,VWS V14.00,2013-10-09 11:48:00,
2013-10-09 06:52:00,56.2,42.5,29.23,SW,224,0.0,0.0,60,0.00,,---,0.00,VWS V14.00,2013-10-09 11:52:00,
2013-10-09 06:55:00,56.2,42.5,29.23,SW,224,0.0,0.0,60,0.00,,---,0.00,VWS V14.00,2013-10-09 11:55:00,
2013-10-09 06:58:00,56.2,42.5,29.23,SW,224,0.0,0.0,60,0.00,,---,0.00,VWS V14.00,2013-10-09 11:58:00,
2013-10-09 07:01:00,56.2,42.5,29.23,SW,224,0.0,0.0,60,0.00,,---,0.00,VWS V14.00,2013-10-09 12:01:00,
2013-10-09 07:04:00,56.2,42.5,29.23,SW,224,0.0,0.0,60,0.00,,---,0.00,VWS V14.00,2013-10-09 12:04:00,
2013-10-09 07:10:00,55.8,42.6,29.23,SW,224,0.0,0.0,61,0.00,,---,0.00,VWS V14.00,2013-10-09 12:10:00,
2013-10-09 07:13:00,55.8,42.6,29.23,SW,224,0.0,0.0,61,0.00,,---,0.00,VWS V14.00,2013-10-09 12:13:00,
2013-10-09 07:18:00,55.8,42.6,29.23,SW,224,0.0,0.0,61,0.00,,---,0.00,VWS V14.00,2013-10-09 12:18:00,
2013-10-09 07:19:00,55.8,42.6,29.23,SW,224,0.0,0.0,61,0.00,,---,0.00,VWS V14.00,2013-10-09 12:19:00,
2013-10-09 07:22:00,55.8,42.6,29.23,SW,224,0.0,0.0,61,0.00,,---,0.00,VWS V14.00,2013-10-09 12:22:00,
2013-10-09 07:25:00,55.8,42.6,29.23,SW,224,2.2,2.2,61,0.00,,---,0.00,VWS V14.00,2013-10-09 12:25:00,
2013-10-09 07:28:00,55.8,42.6,29.23,SW,224,0.0,2.2,61,0.00,,---,0.00,VWS V14.00,2013-10-09 12:28:00,
2013-10-09 07:31:00,55.8,42.6,29.23,SW,224,0.0,2.2,61,0.00,,---,0.00,VWS V14.00,2013-10-09 12:31:00,
2013-10-09 07:34:00,55.8,42.6,29.23,SW,224,0.0,0.0,61,0.00,,---,0.00,VWS V14.00,2013-10-09 12:34:00,
2013-10-09 07:37:00,55.8,42.6,29.23,SW,224,0.0,0.0,61,0.00,,---,0.00,VWS V14.00,2013-10-09 12:37:00,
2013-10-09 07:40:00,55.8,42.6,29.23,SW,224,0.0,0.0,61,0.00,,---,0.00,VWS V14.00,2013-10-09 12:40:00,
2013-10-09 07:43:00,55.8,42.6,29.23,SW,224,0.0,0.0,61,0.00,,---,0.00,VWS V14.00,2013-10-09 12:43:00,
2013-10-09 07:46:00,55.8,42.6,29.23,SW,224,0.0,0.0,61,0.00,,---,0.00,VWS V14.00,2013-10-09 12:46:00,
2013-10-09 07:48:00,55.8,42.6,29.23,SW,224,0.0,0.0,61,0.00,,---,0.00,VWS V14.00,2013-10-09 12:48:00,
2013-10-09 07:49:00,56.0,42.8,29.23,SW,224,0.0,0.0,61,0.00,,---,0.00,VWS V14.00,2013-10-09 12:49:00,
2013-10-09 07:55:00,56.0,42.8,29.23,SW,224,0.0,0.0,61,0.00,,---,0.00,VWS V14.00,2013-10-09 12:55:00,
2013-10-09 07:58:00,56.0,42.8,29.23,SW,224,0.0,0.0,61,0.00,,---,0.00,VWS V14.00,2013-10-09 12:58:00,
2013-10-09 08:01:00,56.0,42.8,29.23,SW,224,0.0,0.0,61,0.00,,---,0.00,VWS V14.00,2013-10-09 13:01:00,
2013-10-09 08:04:00,56.0,42.8,29.23,SW,224,0.0,0.0,61,0.00,,---,0.00,VWS V14.00,2013-10-09 13:04:00,
2013-10-09 08:10:00,56.0,42.8,29.23,SW,224,0.0,0.0,61,0.00,,---,0.00,VWS V14.00,2013-10-09 13:10:00,
2013-10-09 08:13:00,56.0,42.8,29.23,SW,224,0.0,0.0,61,0.00,,---,0.00,VWS V14.00,2013-10-09 13:13:00,
2013-10-09 08:16:00,56.0,42.8,29.23,SW,224,0.0,0.0,61,0.00,,---,0.00,VWS V14.00,2013-10-09 13:16:00,
2013-10-09 08:19:00,56.0,42.8,29.23,SW,224,0.0,0.0,61,0.00,,---,0.00,VWS V14.00,2013-10-09 13:19:00,
2013-10-09 08:22:00,57.6,44.7,29.23,SW,224,0.0,0.0,62,0.00,,---,0.00,VWS V14.00,2013-10-09 13:22:00,
2013-10-09 08:25:00,57.6,44.7,29.23,SW,224,0.0,0.0,62,0.00,,---,0.00,VWS V14.00,2013-10-09 13:25:00,
2013-10-09 08:28:00,57.6,44.7,29.23,SW,224,0.0,0.0,62,0.00,,---,0.00,VWS V14.00,2013-10-09 13:28:00,
2013-10-09 08:31:00,58.5,45.6,29.23,SW,224,0.0,0.0,62,0.00,,---,0.00,VWS V14.00,2013-10-09 13:31:00,
2013-10-09 08:34:00,58.5,45.6,29.23,SW,224,0.0,0.0,62,0.00,,---,0.00,VWS V14.00,2013-10-09 13:34:00,
2013-10-09 08:37:00,58.5,45.6,29.23,SW,224,0.0,0.0,62,0.00,,---,0.00,VWS V14.00,2013-10-09 13:37:00,
2013-10-09 08:43:00,58.5,45.6,29.23,SW,224,0.0,0.0,62,0.00,,---,0.00,VWS V14.00,2013-10-09 13:43:00,
2013-10-09 08:46:00,58.5,45.6,29.23,SW,224,0.0,0.0,62,0.00,,---,0.00,VWS V14.00,2013-10-09 13:46:00,
2013-10-09 08:49:00,61.2,48.1,29.23,SW,224,0.0,0.0,62,0.00,,---,0.00,VWS V14.00,2013-10-09 13:49:00,
2013-10-09 08:52:00,61.2,48.1,29.23,SW,224,0.0,0.0,62,0.00,,---,0.00,VWS V14.00,2013-10-09 13:52:00,
2013-10-09 08:55:00,61.2,48.1,29.23,SW,224,0.0,0.0,62,0.00,,---,0.00,VWS V14.00,2013-10-09 13:55:00,
2013-10-09 08:58:00,61.2,48.1,29.23,SW,224,0.0,0.0,62,0.00,,---,0.00,VWS V14.00,2013-10-09 13:58:00,
2013-10-09 09:01:00,64.6,50.5,29.26,SW,224,0.0,0.0,60,0.00,,---,0.00,VWS V14.00,2013-10-09 14:01:00,
2013-10-09 09:04:00,64.6,50.5,29.26,SW,224,0.0,0.0,60,0.00,,---,0.00,VWS V14.00,2013-10-09 14:04:00,
2013-10-09 09:07:00,64.6,50.5,29.26,SW,224,0.0,0.0,60,0.00,,---,0.00,VWS V14.00,2013-10-09 14:07:00,
2013-10-09 09:10:00,64.6,50.5,29.26,SW,224,0.0,0.0,60,0.00,,---,0.00,VWS V14.00,2013-10-09 14:10:00,
2013-10-09 09:13:00,64.6,50.5,29.26,SW,224,0.0,0.0,60,0.00,,---,0.00,VWS V14.00,2013-10-09 14:13:00,
2013-10-09 09:16:00,64.6,50.5,29.26,SW,224,0.0,0.0,60,0.00,,---,0.00,VWS V14.00,2013-10-09 14:16:00,
2013-10-09 09:17:00,64.6,50.5,29.26,SSW,198,3.6,3.6,60,0.00,,---,0.00,VWS V14.00,2013-10-09 14:17:00,
2013-10-09 09:22:00,64.6,50.5,29.26,South,183,2.7,3.6,60,0.00,,---,0.00,VWS V14.00,2013-10-09 14:22:00,
2013-10-09 09:25:00,64.6,50.5,29.26,South,183,0.0,3.6,60,0.00,,---,0.00,VWS V14.00,2013-10-09 14:25:00,
2013-10-09 09:28:00,64.6,50.5,29.26,South,183,2.2,3.6,60,0.00,,---,0.00,VWS V14.00,2013-10-09 14:28:00,
2013-10-09 09:31:00,73.3,52.4,29.26,South,183,3.1,3.6,48,0.00,,---,0.00,VWS V14.00,2013-10-09 14:31:00,
2013-10-09 09:34:00,73.3,52.4,29.26,South,183,3.1,3.1,48,0.00,,---,0.00,VWS V14.00,2013-10-09 14:34:00,
2013-10-09 09:37:00,73.3,52.4,29.26,South,183,2.7,3.1,48,0.00,,---,0.00,VWS V14.00,2013-10-09 14:37:00,
2013-10-09 09:40:00,73.3,52.4,29.26,South,183,2.7,3.1,48,0.00,,---,0.00,VWS V14.00,2013-10-09 14:40:00,
2013-10-09 09:46:00,73.3,52.4,29.26,South,183,2.7,3.6,48,0.00,,---,0.00,VWS V14.00,2013-10-09 14:46:00,
2013-10-09 09:49:00,73.3,52.4,29.26,South,183,3.6,3.6,48,0.00,,---,0.00,VWS V14.00,2013-10-09 14:49:00,
2013-10-09 09:52:00,73.3,52.4,29.26,South,183,3.1,3.6,48,0.00,,---,0.00,VWS V14.00,2013-10-09 14:52:00,
2013-10-09 09:55:00,78.0,53.7,29.26,South,183,3.1,3.6,43,0.00,,---,0.00,VWS V14.00,2013-10-09 14:55:00,
2013-10-09 09:58:00,78.0,53.7,29.26,South,183,2.7,4.0,43,0.00,,---,0.00,VWS V14.00,2013-10-09 14:58:00,
2013-10-09 10:01:00,78.0,53.7,29.26,South,183,2.7,4.0,43,0.00,,---,0.00,VWS V14.00,2013-10-09 15:01:00,
2013-10-09 10:04:00,79.0,54.0,29.26,SE,144,3.6,3.6,42,0.00,,---,0.00,VWS V14.00,2013-10-09 15:04:00,
2013-10-09 10:10:00,79.0,54.0,29.26,South,183,3.6,4.0,42,0.00,,---,0.00,VWS V14.00,2013-10-09 15:10:00,
2013-10-09 10:13:00,79.0,54.0,29.26,South,176,3.6,4.0,42,0.00,,---,0.00,VWS V14.00,2013-10-09 15:13:00,
2013-10-09 10:16:00,79.0,54.0,29.26,South,172,3.6,4.0,42,0.00,,---,0.00,VWS V14.00,2013-10-09 15:16:00,
2013-10-09 10:19:00,79.0,54.0,29.26,South,180,3.1,3.1,42,0.00,,---,0.00,VWS V14.00,2013-10-09 15:19:00,
2013-10-09 10:22:00,79.0,54.0,29.26,SSE,166,3.6,3.6,42,0.00,,---,0.00,VWS V14.00,2013-10-09 15:22:00,
2013-10-09 10:25:00,79.0,54.0,29.26,South,177,3.1,4.9,42,0.00,,---,0.00,VWS V14.00,2013-10-09 15:25:00,
2013-10-09 10:28:00,79.0,54.0,29.26,South,177,3.1,4.9,42,0.00,,---,0.00,VWS V14.00,2013-10-09 15:28:00,
2013-10-09 10:31:00,79.0,54.0,29.26,South,173,4.0,4.9,42,0.00,,---,0.00,VWS V14.00,2013-10-09 15:31:00,
2013-10-09 10:33:00,79.0,52.7,29.26,South,185,4.9,4.9,40,0.00,,---,0.00,VWS V14.00,2013-10-09 15:33:00,
2013-10-09 10:34:00,79.0,52.7,29.26,SSE,163,4.0,4.9,40,0.00,,---,0.00,VWS V14.00,2013-10-09 15:34:00,
2013-10-09 10:37:00,78.9,52.5,29.26,South,171,3.1,4.9,40,0.00,,---,0.00,VWS V14.00,2013-10-09 15:37:00,
2013-10-09 10:40:00,78.9,52.5,29.26,South,180,4.9,4.9,40,0.00,,---,0.00,VWS V14.00,2013-10-09 15:40:00,
2013-10-09 10:43:00,78.9,52.5,29.26,South,180,4.9,4.9,40,0.00,,---,0.00,VWS V14.00,2013-10-09 15:43:00,
2013-10-09 10:49:00,78.7,52.4,29.26,South,180,3.1,4.9,40,0.00,,---,0.00,VWS V14.00,2013-10-09 15:49:00,
2013-10-09 10:52:00,78.7,52.4,29.26,SSE,167,4.9,4.9,40,0.00,,---,0.00,VWS V14.00,2013-10-09 15:52:00,
2013-10-09 10:55:00,78.7,52.4,29.26,SSE,168,4.0,5.4,40,0.00,,---,0.00,VWS V14.00,2013-10-09 15:55:00,
2013-10-09 10:58:00,78.7,52.4,29.26,SSE,157,4.5,5.4,40,0.00,,---,0.00,VWS V14.00,2013-10-09 15:58:00,
2013-10-09 11:01:00,78.7,52.4,29.26,SSE,157,4.5,5.4,40,0.00,,---,0.00,VWS V14.00,2013-10-09 16:01:00,
2013-10-09 11:03:00,78.7,52.4,29.26,South,176,5.4,5.4,40,0.00,,---,0.00,VWS V14.00,2013-10-09 16:03:00,
2013-10-09 11:04:00,78.7,52.4,29.26,South,176,4.0,5.4,40,0.00,,---,0.00,VWS V14.00,2013-10-09 16:04:00,
2013-10-09 11:10:00,78.7,52.4,29.26,South,170,3.1,5.4,40,0.00,,---,0.00,VWS V14.00,2013-10-09 16:10:00,
2013-10-09 11:16:00,78.7,52.4,29.26,South,169,2.7,5.4,40,0.00,,---,0.00,VWS V14.00,2013-10-09 16:16:00,
2013-10-09 11:22:00,79.0,52.0,29.26,South,169,2.7,2.7,39,0.00,,---,0.00,VWS V14.00,2013-10-09 16:22:00,
2013-10-09 11:25:00,79.0,52.0,29.26,SSE,166,2.7,2.7,39,0.00,,---,0.00,VWS V14.00,2013-10-09 16:25:00,
2013-10-09 11:28:00,79.0,52.0,29.26,SSE,166,2.7,2.7,39,0.00,,---,0.00,VWS V14.00,2013-10-09 16:28:00,
2013-10-09 11:31:00,79.0,52.0,29.26,South,169,3.6,3.6,39,0.00,,---,0.00,VWS V14.00,2013-10-09 16:31:00,
2013-10-09 11:33:00,79.0,52.0,29.26,South,169,3.6,3.6,39,0.00,,---,0.00,VWS V14.00,2013-10-09 16:33:00,
2013-10-09 11:37:00,79.0,52.0,29.26,South,172,3.6,3.6,39,0.00,,---,0.00,VWS V14.00,2013-10-09 16:37:00,
2013-10-09 11:40:00,79.8,52.6,29.26,South,172,0.0,3.6,39,0.00,,---,0.00,VWS V14.00,2013-10-09 16:40:00,
2013-10-09 11:47:00,80.1,53.0,29.26,South,169,3.6,4.0,39,0.00,,---,0.00,VWS V14.00,2013-10-09 16:47:00,
2013-10-09 11:48:00,80.1,53.0,29.26,South,169,0.0,4.0,39,0.00,,---,0.00,VWS V14.00,2013-10-09 16:48:00,
2013-10-09 11:50:00,80.1,53.0,29.26,South,170,3.1,3.1,39,0.00,,---,0.00,VWS V14.00,2013-10-09 16:50:00,
2013-10-09 11:53:00,80.5,52.6,29.26,South,170,2.7,3.6,38,0.00,,---,0.00,VWS V14.00,2013-10-09 16:53:00,
2013-10-09 11:56:00,80.5,52.6,29.26,South,180,2.7,3.6,38,0.00,,---,0.00,VWS V14.00,2013-10-09 16:56:00,
2013-10-09 11:59:00,80.5,52.6,29.26,South,180,3.6,3.6,38,0.00,,---,0.00,VWS V14.00,2013-10-09 16:59:00,
2013-10-09 12:02:00,80.8,52.9,29.26,South,180,2.2,3.6,38,0.00,,---,0.00,VWS V14.00,2013-10-09 17:02:00,
2013-10-09 12:05:00,80.8,52.9,29.26,South,185,4.9,4.9,38,0.00,,---,0.00,VWS V14.00,2013-10-09 17:05:00,
2013-10-09 12:11:00,80.8,52.9,29.26,South,171,4.0,4.9,38,0.00,,---,0.00,VWS V14.00,2013-10-09 17:11:00,
2013-10-09 12:14:00,80.8,52.9,29.26,South,172,4.0,4.9,38,0.00,,---,0.00,VWS V14.00,2013-10-09 17:14:00,
2013-10-09 12:17:00,80.8,52.9,29.26,SSE,164,3.6,4.9,38,0.00,,---,0.00,VWS V14.00,2013-10-09 17:17:00,
2013-10-09 12:20:00,80.8,52.9,29.26,SSE,164,3.6,3.6,38,0.00,,---,0.00,VWS V14.00,2013-10-09 17:20:00,
2013-10-09 12:23:00,81.6,53.5,29.26,SSE,162,3.1,3.6,38,0.00,,---,0.00,VWS V14.00,2013-10-09 17:23:00,
2013-10-09 12:26:00,81.6,53.5,29.26,South,173,4.0,4.0,38,0.00,,---,0.00,VWS V14.00,2013-10-09 17:26:00,
2013-10-09 12:29:00,81.6,53.5,29.26,South,173,4.0,4.0,38,0.00,,---,0.00,VWS V14.00,2013-10-09 17:29:00,
2013-10-09 12:33:00,81.6,53.5,29.26,South,182,3.6,4.0,38,0.00,,---,0.00,VWS V14.00,2013-10-09 17:33:00,
2013-10-09 12:35:00,81.6,53.5,29.26,South,182,3.6,3.6,38,0.00,,---,0.00,VWS V14.00,2013-10-09 17:35:00,
2013-10-09 12:38:00,81.6,53.5,29.26,SSW,193,3.1,3.6,38,0.00,,---,0.00,VWS V14.00,2013-10-09 17:38:00,
2013-10-09 12:41:00,81.6,53.5,29.26,South,191,2.7,3.6,38,0.00,,---,0.00,VWS V14.00,2013-10-09 17:41:00,
2013-10-09 12:44:00,81.6,53.5,29.26,South,178,2.2,3.6,38,0.00,,---,0.00,VWS V14.00,2013-10-09 17:44:00,
2013-10-09 12:47:00,82.5,53.6,29.26,SSE,167,4.0,4.0,37,0.00,,---,0.00,VWS V14.00,2013-10-09 17:47:00,
2013-10-09 12:48:00,82.5,53.6,29.26,SSE,167,4.0,4.0,37,0.00,,---,0.00,VWS V14.00,2013-10-09 17:48:00,
2013-10-09 12:50:00,82.5,53.6,29.26,SSE,167,4.0,4.0,37,0.00,,---,0.00,VWS V14.00,2013-10-09 17:50:00,
2013-10-09 12:53:00,82.5,53.6,29.26,SSE,159,3.6,4.0,37,0.00,,---,0.00,VWS V14.00,2013-10-09 17:53:00,
2013-10-09 12:59:00,82.5,53.6,29.23,SSE,168,4.0,4.0,37,0.00,,---,0.00,VWS V14.00,2013-10-09 17:59:00,
2013-10-09 13:02:00,82.5,53.6,29.23,SSE,168,4.0,4.0,37,0.00,,---,0.00,VWS V14.00,2013-10-09 18:02:00,
2013-10-09 13:03:00,83.0,53.3,29.23,South,169,3.6,4.0,36,0.00,,---,0.00,VWS V14.00,2013-10-09 18:03:00,
2013-10-09 13:05:00,83.0,53.3,29.23,SSE,164,2.2,3.6,36,0.00,,---,0.00,VWS V14.00,2013-10-09 18:05:00,
2013-10-09 13:11:00,83.0,53.3,29.23,SSW,200,3.1,3.6,36,0.00,,---,0.00,VWS V14.00,2013-10-09 18:11:00,
2013-10-09 13:14:00,83.0,53.3,29.23,SSW,208,2.2,3.6,36,0.00,,---,0.00,VWS V14.00,2013-10-09 18:14:00,
2013-10-09 13:17:00,83.0,53.3,29.23,SSW,208,2.2,3.6,36,0.00,,---,0.00,VWS V14.00,2013-10-09 18:17:00,
2013-10-09 13:20:00,83.0,53.3,29.23,SSW,200,3.6,3.6,36,0.00,,---,0.00,VWS V14.00,2013-10-09 18:20:00,
2013-10-09 13:23:00,83.4,52.9,29.23,SE,136,0.0,3.6,35,0.00,,---,0.00,VWS V14.00,2013-10-09 18:23:00,
2013-10-09 13:26:00,83.4,52.9,29.23,SE,136,0.0,3.6,35,0.00,,---,0.00,VWS V14.00,2013-10-09 18:26:00,
2013-10-09 13:29:00,83.4,52.9,29.23,South,169,4.0,4.0,35,0.00,,---,0.00,VWS V14.00,2013-10-09 18:29:00,
2013-10-09 13:32:00,83.4,52.9,29.23,South,169,4.0,4.0,35,0.00,,---,0.00,VWS V14.00,2013-10-09 18:32:00,
2013-10-09 13:33:00,83.4,52.9,29.23,South,169,4.0,4.0,35,0.00,,---,0.00,VWS V14.00,2013-10-09 18:33:00,
2013-10-09 13:35:00,83.4,52.9,29.23,South,169,4.0,4.0,35,0.00,,---,0.00,VWS V14.00,2013-10-09 18:35:00,
2013-10-09 13:38:00,83.7,53.2,29.23,South,184,0.0,4.0,35,0.00,,---,0.00,VWS V14.00,2013-10-09 18:38:00,
2013-10-09 13:41:00,83.7,53.2,29.21,SE,145,3.1,4.0,35,0.00,,---,0.00,VWS V14.00,2013-10-09 18:41:00,
2013-10-09 13:44:00,84.1,53.5,29.21,SE,145,3.1,4.0,35,0.00,,---,0.00,VWS V14.00,2013-10-09 18:44:00,
2013-10-09 13:47:00,84.1,53.5,29.21,SE,145,3.1,4.0,35,0.00,,---,0.00,VWS V14.00,2013-10-09 18:47:00,
2013-10-09 13:50:00,84.1,53.5,29.21,South,175,4.0,4.0,35,0.00,,---,0.00,VWS V14.00,2013-10-09 18:50:00,
2013-10-09 13:53:00,84.1,53.5,29.21,SSE,166,3.6,4.0,35,0.00,,---,0.00,VWS V14.00,2013-10-09 18:53:00,
2013-10-09 13:56:00,84.1,53.5,29.21,South,173,4.9,4.9,35,0.00,,---,0.00,VWS V14.00,2013-10-09 18:56:00,
2013-10-09 13:59:00,84.1,53.5,29.21,SE,125,3.6,4.9,35,0.00,,---,0.00,VWS V14.00,2013-10-09 18:59:00,
2013-10-09 14:02:00,84.4,53.0,29.21,South,170,2.7,4.9,34,0.00,,---,0.00,VWS V14.00,2013-10-09 19:02:00,
2013-10-09 14:05:00,84.4,53.0,29.21,South,170,2.7,2.7,34,0.00,,---,0.00,VWS V14.00,2013-10-09 19:05:00,
2013-10-09 14:08:00,84.4,53.0,29.21,South,184,3.6,3.6,34,0.00,,---,0.00,VWS V14.00,2013-10-09 19:08:00,
2013-10-09 14:11:00,84.6,53.2,29.21,South,184,3.6,3.6,34,0.00,,---,0.00,VWS V14.00,2013-10-09 19:11:00,
2013-10-09 14:17:00,84.6,53.2,29.21,SSE,165,3.6,3.6,34,0.00,,---,0.00,VWS V14.00,2013-10-09 19:17:00,
2013-10-09 14:18:00,84.6,53.2,29.21,SSE,165,3.6,3.6,34,0.00,,---,0.00,VWS V14.00,2013-10-09 19:18:00,
2013-10-09 14:23:00,84.6,53.2,29.21,South,175,4.0,4.0,34,0.00,,---,0.00,VWS V14.00,2013-10-09 19:23:00,
2013-10-09 14:26:00,84.6,53.2,29.21,South,170,5.4,5.4,34,0.00,,---,0.00,VWS V14.00,2013-10-09 19:26:00,
2013-10-09 14:29:00,84.6,53.2,29.21,South,176,3.6,5.4,34,0.00,,---,0.00,VWS V14.00,2013-10-09 19:29:00,
2013-10-09 14:32:00,84.6,53.2,29.21,SSE,163,4.5,5.4,34,0.00,,---,0.00,VWS V14.00,2013-10-09 19:32:00,
2013-10-09 14:38:00,84.6,52.4,29.21,SSE,165,4.0,5.8,33,0.00,,---,0.00,VWS V14.00,2013-10-09 19:38:00,
2013-10-09 14:41:00,84.6,52.4,29.21,SSE,166,4.0,5.8,33,0.00,,---,0.00,VWS V14.00,2013-10-09 19:41:00,
2013-10-09 14:47:00,84.6,52.4,29.21,South,173,6.3,6.3,33,0.00,,---,0.00,VWS V14.00,2013-10-09 19:47:00,
2013-10-09 14:50:00,84.6,52.4,29.21,South,177,3.1,6.3,33,0.00,,---,0.00,VWS V14.00,2013-10-09 19:50:00,
2013-10-09 14:53:00,84.6,52.4,29.21,South,184,3.6,6.3,33,0.00,,---,0.00,VWS V14.00,2013-10-09 19:53:00,
2013-10-09 14:56:00,84.6,52.4,29.21,SSE,162,4.0,6.3,33,0.00,,---,0.00,VWS V14.00,2013-10-09 19:56:00,
2013-10-09 14:59:00,84.6,52.4,29.21,SSE,162,4.0,6.3,33,0.00,,---,0.00,VWS V14.00,2013-10-09 19:59:00,
2013-10-09 15:02:00,84.6,52.4,29.21,SSE,163,3.1,6.3,33,0.00,,---,0.00,VWS V14.00,2013-10-09 20:02:00,
2013-10-09 15:05:00,84.6,52.4,29.21,SSE,163,2.7,4.9,33,0.00,,---,0.00,VWS V14.00,2013-10-09 20:05:00,
2013-10-09 15:11:00,84.6,52.4,29.21,SSE,160,4.9,4.9,33,0.00,,---,0.00,VWS V14.00,2013-10-09 20:11:00,
2013-10-09 15:14:00,84.6,52.4,29.21,SSE,160,4.9,4.9,33,0.00,,---,0.00,VWS V14.00,2013-10-09 20:14:00,
2013-10-09 15:17:00,84.4,52.2,29.21,SSE,160,4.9,4.9,33,0.00,,---,0.00,VWS V14.00,2013-10-09 20:17:00,
2013-10-09 15:18:00,84.4,52.2,29.21,SSE,160,4.9,4.9,33,0.00,,---,0.00,VWS V14.00,2013-10-09 20:18:00,
2013-10-09 15:20:00,84.4,52.2,29.21,SSE,158,3.1,4.9,33,0.00,,---,0.00,VWS V14.00,2013-10-09 20:20:00,
2013-10-09 15:23:00,84.4,52.2,29.21,SSE,158,3.1,4.9,33,0.00,,---,0.00,VWS V14.00,2013-10-09 20:23:00,
2013-10-09 15:26:00,84.4,52.2,29.21,South,179,3.1,4.9,33,0.00,,---,0.00,VWS V14.00,2013-10-09 20:26:00,
2013-10-09 15:29:00,84.4,52.2,29.21,South,169,4.0,4.9,33,0.00,,---,0.00,VWS V14.00,2013-10-09 20:29:00,
2013-10-09 15:32:00,84.4,52.2,29.21,South,169,4.0,4.9,33,0.00,,---,0.00,VWS V14.00,2013-10-09 20:32:00,
2013-10-09 15:35:00,84.4,52.2,29.21,South,170,2.7,4.0,33,0.00,,---,0.00,VWS V14.00,2013-10-09 20:35:00,
2013-10-09 15:38:00,84.4,52.2,29.18,SSE,158,3.6,4.0,33,0.00,,---,0.00,VWS V14.00,2013-10-09 20:38:00,
2013-10-09 15:41:00,84.4,52.2,29.18,South,171,4.5,4.5,33,0.00,,---,0.00,VWS V14.00,2013-10-09 20:41:00,
2013-10-09 15:44:00,84.4,51.4,29.18,South,171,4.5,4.5,32,0.00,,---,0.00,VWS V14.00,2013-10-09 20:44:00,
2013-10-09 15:47:00,84.4,51.4,29.18,SSE,160,3.6,4.5,32,0.00,,---,0.00,VWS V14.00,2013-10-09 20:47:00,
2013-10-09 15:50:00,84.3,51.2,29.18,SSE,161,3.6,3.6,32,0.00,,---,0.00,VWS V14.00,2013-10-09 20:50:00,
2013-10-09 15:53:00,84.3,51.2,29.18,SSE,161,3.6,3.6,32,0.00,,---,0.00,VWS V14.00,2013-10-09 20:53:00,
2013-10-09 15:56:00,84.3,51.2,29.18,South,174,4.5,4.5,32,0.00,,---,0.00,VWS V14.00,2013-10-09 20:56:00,
2013-10-09 15:59:00,84.3,51.2,29.18,South,174,4.5,4.5,32,0.00,,---,0.00,VWS V14.00,2013-10-09 20:59:00,
2013-10-09 16:02:00,84.3,51.2,29.18,SE,146,4.0,4.9,32,0.00,,---,0.00,VWS V14.00,2013-10-09 21:02:00,
2013-10-09 16:05:00,84.3,51.2,29.18,SSE,151,4.9,4.9,32,0.00,,---,0.00,VWS V14.00,2013-10-09 21:05:00,
2013-10-09 16:08:00,84.3,51.2,29.18,SSE,151,4.9,4.9,32,0.00,,---,0.00,VWS V14.00,2013-10-09 21:08:00,
2013-10-09 16:11:00,84.3,51.2,29.18,SSE,160,4.0,4.9,32,0.00,,---,0.00,VWS V14.00,2013-10-09 21:11:00,
2013-10-09 16:17:00,84.3,51.2,29.18,SSE,156,5.8,5.8,32,0.00,,---,0.00,VWS V14.00,2013-10-09 21:17:00,
2013-10-09 16:18:00,84.3,51.2,29.18,SSE,156,5.8,5.8,32,0.00,,---,0.00,VWS V14.00,2013-10-09 21:18:00,
2013-10-09 16:20:00,84.3,51.2,29.18,SSE,166,5.8,5.8,32,0.00,,---,0.00,VWS V14.00,2013-10-09 21:20:00,
2013-10-09 16:23:00,84.3,51.2,29.18,SSE,166,5.8,5.8,32,0.00,,---,0.00,VWS V14.00,2013-10-09 21:23:00,
2013-10-09 16:26:00,84.1,51.1,29.18,South,186,3.6,5.8,32,0.00,,---,0.00,VWS V14.00,2013-10-09 21:26:00,
2013-10-09 16:29:00,84.1,51.1,29.18,SSE,162,4.0,5.8,32,0.00,,---,0.00,VWS V14.00,2013-10-09 21:29:00,
2013-10-09 16:32:00,84.1,51.1,29.18,South,183,5.4,5.8,32,0.00,,---,0.00,VWS V14.00,2013-10-09 21:32:00,
2013-10-09 16:35:00,84.1,51.1,29.18,South,183,5.4,5.4,32,0.00,,---,0.00,VWS V14.00,2013-10-09 21:35:00,
2013-10-09 16:38:00,84.1,51.1,29.18,South,174,4.9,5.4,32,0.00,,---,0.00,VWS V14.00,2013-10-09 21:38:00,
2013-10-09 16:44:00,83.9,50.9,29.18,SSE,160,4.0,5.4,32,0.00,,---,0.00,VWS V14.00,2013-10-09 21:44:00,
2013-10-09 16:47:00,83.9,50.9,29.18,SSE,160,4.0,5.4,32,0.00,,---,0.00,VWS V14.00,2013-10-09 21:47:00,
2013-10-09 16:50:00,83.7,50.8,29.18,SSE,168,4.9,5.4,32,0.00,,---,0.00,VWS V14.00,2013-10-09 21:50:00,
2013-10-09 16:53:00,83.7,50.8,29.18,South,171,4.0,5.4,32,0.00,,---,0.00,VWS V14.00,2013-10-09 21:53:00,
2013-10-09 16:56:00,83.7,50.8,29.18,South,171,3.6,5.4,32,0.00,,---,0.00,VWS V14.00,2013-10-09 21:56:00,
2013-10-09 16:59:00,83.4,50.5,29.18,South,170,5.4,5.4,32,0.00,,---,0.00,VWS V14.00,2013-10-09 21:59:00,
2013-10-09 17:03:00,83.4,50.5,29.18,SSE,162,4.0,5.4,32,0.00,,---,0.00,VWS V14.00,2013-10-09 22:03:00,
2013-10-09 17:05:00,83.0,50.1,29.18,SSE,162,4.0,4.0,32,0.00,,---,0.00,VWS V14.00,2013-10-09 22:05:00,
2013-10-09 17:08:00,83.0,50.1,29.18,SSE,168,6.3,6.3,32,0.00,,---,0.00,VWS V14.00,2013-10-09 22:08:00,
2013-10-09 17:11:00,83.0,50.1,29.18,SSE,165,5.8,6.3,32,0.00,,---,0.00,VWS V14.00,2013-10-09 22:11:00,
2013-10-09 17:14:00,82.6,50.7,29.18,SSE,165,5.8,6.3,33,0.00,,---,0.00,VWS V14.00,2013-10-09 22:14:00,
2013-10-09 17:17:00,82.5,50.5,29.18,SSE,154,5.8,6.3,33,0.00,,---,0.00,VWS V14.00,2013-10-09 22:17:00,
2013-10-09 17:23:00,82.5,50.5,29.18,SSE,158,2.7,5.8,33,0.00,,---,0.00,VWS V14.00,2013-10-09 22:23:00,
2013-10-09 17:29:00,81.4,49.5,29.18,South,187,4.0,5.8,33,0.00,,---,0.00,VWS V14.00,2013-10-09 22:29:00,
2013-10-09 17:32:00,81.4,49.5,29.18,South,187,4.0,5.8,33,0.00,,---,0.00,VWS V14.00,2013-10-09 22:32:00,
2013-10-09 17:33:00,81.4,49.5,29.18,South,187,4.0,5.8,33,0.00,,---,0.00,VWS V14.00,2013-10-09 22:33:00,
2013-10-09 17:35:00,81.4,49.5,29.18,South,187,4.0,4.0,33,0.00,,---,0.00,VWS V14.00,2013-10-09 22:35:00,
2013-10-09 17:41:00,81.4,49.5,29.18,SE,143,3.1,4.0,33,0.00,,---,0.00,VWS V14.00,2013-10-09 22:41:00,
2013-10-09 17:48:00,81.4,49.5,29.18,SSE,156,5.4,5.4,33,0.00,,---,0.00,VWS V14.00,2013-10-09 22:48:00,
2013-10-09 17:51:00,79.9,49.1,29.18,South,181,3.1,5.4,34,0.00,,---,0.00,VWS V14.00,2013-10-09 22:51:00,
2013-10-09 17:54:00,79.9,49.1,29.18,South,181,0.0,5.4,34,0.00,,---,0.00,VWS V14.00,2013-10-09 22:54:00,
2013-10-09 18:00:00,79.4,48.6,29.18,South,182,0.0,5.4,34,0.00,,---,0.00,VWS V14.00,2013-10-09 23:00:00,
2013-10-09 18:03:00,79.4,48.6,29.18,South,182,0.0,5.4,34,0.00,,---,0.00,VWS V14.00,2013-10-09 23:03:00,
2013-10-09 18:06:00,79.0,49.1,29.18,South,182,0.0,0.0,35,0.00,,---,0.00,VWS V14.00,2013-10-09 23:06:00,
2013-10-09 18:09:00,79.0,49.1,29.18,South,186,0.0,0.0,35,0.00,,---,0.00,VWS V14.00,2013-10-09 23:09:00,
2013-10-09 18:12:00,79.0,49.1,29.18,South,186,0.0,0.0,35,0.00,,---,0.00,VWS V14.00,2013-10-09 23:12:00,
2013-10-09 18:18:00,78.1,49.0,29.18,South,173,0.0,2.7,36,0.00,,---,0.00,VWS V14.00,2013-10-09 23:18:00,
2013-10-09 18:21:00,78.1,49.0,29.18,South,173,0.0,0.0,36,0.00,,---,0.00,VWS V14.00,2013-10-09 23:21:00,
2013-10-09 18:24:00,78.1,49.0,29.18,East,97,0.0,2.7,36,0.00,,---,0.00,VWS V14.00,2013-10-09 23:24:00,
2013-10-09 18:27:00,78.1,49.0,29.18,East,97,0.0,2.7,36,0.00,,---,0.00,VWS V14.00,2013-10-09 23:27:00,
2013-10-09 18:30:00,78.1,49.0,29.18,SE,125,0.0,2.7,36,0.00,,---,0.00,VWS V14.00,2013-10-09 23:30:00,
2013-10-09 18:33:00,77.2,48.2,29.18,SE,125,0.0,2.7,36,0.00,,---,0.00,VWS V14.00,2013-10-09 23:33:00,
2013-10-09 18:36:00,77.2,48.2,29.18,SSW,208,2.2,2.2,36,0.00,,---,0.00,VWS V14.00,2013-10-09 23:36:00,
2013-10-09 18:39:00,77.1,48.8,29.18,SSW,208,0.0,2.2,37,0.00,,---,0.00,VWS V14.00,2013-10-09 23:39:00,
2013-10-09 18:42:00,76.7,48.5,29.18,SSW,208,0.0,2.2,37,0.00,,---,0.00,VWS V14.00,2013-10-09 23:42:00,
2013-10-09 18:45:00,76.7,48.5,29.18,SSW,200,0.0,2.2,37,0.00,,---,0.00,VWS V14.00,2013-10-09 23:45:00,
2013-10-09 18:48:00,76.5,48.3,29.18,SSW,200,0.0,2.2,37,0.00,,---,0.00,VWS V14.00,2013-10-09 23:48:00,
2013-10-09 18:51:00,76.3,48.2,29.18,SSW,200,0.0,0.0,37,0.00,,---,0.00,VWS V14.00,2013-10-09 23:51:00,
2013-10-09 18:54:00,76.3,48.2,29.18,SSW,200,0.0,0.0,37,0.00,,---,0.00,VWS V14.00,2013-10-09 23:54:00,
2013-10-09 18:57:00,76.0,48.6,29.18,SSW,200,0.0,0.0,38,0.00,,---,0.00,VWS V14.00,2013-10-09 23:57:00,
2013-10-09 19:00:00,76.0,48.6,29.18,SSW,200,0.0,0.0,38,0.00,,---,0.00,VWS V14.00,2013-10-10 00:00:00,
2013-10-09 19:03:00,76.0,48.6,29.18,SSW,200,0.0,0.0,38,0.00,,---,0.00,VWS V14.00,2013-10-10 00:03:00,
2013-10-09 19:12:00,75.3,48.6,29.18,SSW,200,0.0,0.0,39,0.00,,---,0.00,VWS V14.00,2013-10-10 00:12:00,
2013-10-09 19:15:00,75.1,48.5,29.18,SSW,200,0.0,0.0,39,0.00,,---,0.00,VWS V14.00,2013-10-10 00:15:00,
2013-10-09 19:18:00,75.1,48.5,29.18,SSW,200,0.0,0.0,39,0.00,,---,0.00,VWS V14.00,2013-10-10 00:18:00,
2013-10-09 19:21:00,74.7,48.1,29.18,SSW,200,0.0,0.0,39,0.00,,---,0.00,VWS V14.00,2013-10-10 00:21:00,
2013-10-09 19:24:00,74.5,48.0,29.18,SSW,200,0.0,0.0,39,0.00,,---,0.00,VWS V14.00,2013-10-10 00:24:00,
2013-10-09 19:27:00,74.5,48.0,29.18,SSW,200,0.0,0.0,39,0.00,,---,0.00,VWS V14.00,2013-10-10 00:27:00,
2013-10-09 19:30:00,74.4,48.5,29.18,SSW,200,0.0,0.0,40,0.00,,---,0.00,VWS V14.00,2013-10-10 00:30:00,
2013-10-09 19:33:00,74.2,48.3,29.18,SSW,200,0.0,0.0,40,0.00,,---,0.00,VWS V14.00,2013-10-10 00:33:00,
2013-10-09 19:36:00,74.0,48.2,29.18,SSW,200,0.0,0.0,40,0.00,,---,0.00,VWS V14.00,2013-10-10 00:36:00,
2013-10-09 19:39:00,74.0,48.2,29.18,SSW,200,0.0,0.0,40,0.00,,---,0.00,VWS V14.00,2013-10-10 00:39:00,
2013-10-09 19:42:00,73.8,48.0,29.18,SSW,200,2.7,2.7,40,0.00,,---,0.00,VWS V14.00,2013-10-10 00:42:00,
2013-10-09 19:45:00,73.8,48.7,29.18,SSW,200,2.7,2.7,41,0.00,,---,0.00,VWS V14.00,2013-10-10 00:45:00,
2013-10-09 19:48:00,73.6,48.5,29.18,SSW,200,0.0,0.0,41,0.00,,---,0.00,VWS V14.00,2013-10-10 00:48:00,
2013-10-09 19:51:00,73.6,48.5,29.18,SSW,200,0.0,0.0,41,0.00,,---,0.00,VWS V14.00,2013-10-10 00:51:00,
2013-10-09 19:54:00,73.5,48.3,29.18,SSW,200,0.0,0.0,41,0.00,,---,0.00,VWS V14.00,2013-10-10 00:54:00,
2013-10-09 19:57:00,73.5,48.3,29.18,SSW,200,0.0,0.0,41,0.00,,---,0.00,VWS V14.00,2013-10-10 00:57:00,
2013-10-09 20:00:00,73.1,48.0,29.18,SSW,200,0.0,0.0,41,0.00,,---,0.00,VWS V14.00,2013-10-10 01:00:00,
2013-10-09 20:03:00,73.1,48.0,29.18,SSW,200,0.0,0.0,41,0.00,,---,0.00,VWS V14.00,2013-10-10 01:03:00,
2013-10-09 20:06:00,72.9,47.9,29.18,SSW,200,0.0,0.0,41,0.00,,---,0.00,VWS V14.00,2013-10-10 01:06:00,
2013-10-09 20:09:00,72.9,47.9,29.18,SSW,200,0.0,0.0,41,0.00,,---,0.00,VWS V14.00,2013-10-10 01:09:00,
2013-10-09 20:12:00,72.9,47.9,29.18,SSW,200,0.0,0.0,41,0.00,,---,0.00,VWS V14.00,2013-10-10 01:12:00,
2013-10-09 20:15:00,72.9,47.9,29.18,SSW,200,0.0,0.0,41,0.00,,---,0.00,VWS V14.00,2013-10-10 01:15:00,
2013-10-09 20:18:00,72.9,47.9,29.18,SSW,200,0.0,0.0,41,0.00,,---,0.00,VWS V14.00,2013-10-10 01:18:00,
2013-10-09 20:21:00,72.2,47.2,29.18,SSW,200,0.0,0.0,41,0.00,,---,0.00,VWS V14.00,2013-10-10 01:21:00,
2013-10-09 20:24:00,72.0,47.7,29.18,SSW,200,0.0,0.0,42,0.00,,---,0.00,VWS V14.00,2013-10-10 01:24:00,
2013-10-09 20:27:00,72.0,47.7,29.18,SSW,200,0.0,0.0,42,0.00,,---,0.00,VWS V14.00,2013-10-10 01:27:00,
2013-10-09 20:30:00,72.0,47.7,29.18,SSW,200,0.0,0.0,42,0.00,,---,0.00,VWS V14.00,2013-10-10 01:30:00,
2013-10-09 20:32:00,72.0,47.7,29.18,SSW,200,0.0,0.0,42,0.00,,---,0.00,VWS V14.00,2013-10-10 01:32:00,
2013-10-09 20:33:00,72.0,47.7,29.18,SSW,200,0.0,0.0,42,0.00,,---,0.00,VWS V14.00,2013-10-10 01:33:00,
2013-10-09 20:39:00,71.5,47.2,29.18,SSW,200,0.0,0.0,42,0.00,,---,0.00,VWS V14.00,2013-10-10 01:39:00,
2013-10-09 20:42:00,71.5,47.2,29.18,SSW,200,0.0,0.0,42,0.00,,---,0.00,VWS V14.00,2013-10-10 01:42:00,
2013-10-09 20:47:00,71.3,47.7,29.18,SSW,200,0.0,0.0,43,0.00,,---,0.00,VWS V14.00,2013-10-10 01:47:00,
2013-10-09 20:48:00,71.3,47.7,29.21,SSW,200,0.0,0.0,43,0.00,,---,0.00,VWS V14.00,2013-10-10 01:48:00,
2013-10-09 20:54:00,71.1,47.5,29.21,SSW,200,0.0,0.0,43,0.00,,---,0.00,VWS V14.00,2013-10-10 01:54:00,
2013-10-09 20:57:00,71.1,47.5,29.21,SSW,200,0.0,0.0,43,0.00,,---,0.00,VWS V14.00,2013-10-10 01:57:00,
2013-10-09 21:00:00,71.1,47.5,29.21,SSW,200,0.0,0.0,43,0.00,,---,0.00,VWS V14.00,2013-10-10 02:00:00,
2013-10-09 21:02:00,71.1,47.5,29.21,SSW,200,0.0,0.0,43,0.00,,---,0.00,VWS V14.00,2013-10-10 02:02:00,
2013-10-09 21:03:00,71.1,47.5,29.21,SSW,200,0.0,0.0,43,0.00,,---,0.00,VWS V14.00,2013-10-10 02:03:00,
2013-10-09 21:06:00,70.9,47.3,29.21,SSW,200,0.0,0.0,43,0.00,,---,0.00,VWS V14.00,2013-10-10 02:06:00,
2013-10-09 21:09:00,70.9,48.0,29.21,SSW,200,0.0,0.0,44,0.00,,---,0.00,VWS V14.00,2013-10-10 02:09:00,
2013-10-09 21:12:00,70.9,48.0,29.18,SSW,200,0.0,0.0,44,0.00,,---,0.00,VWS V14.00,2013-10-10 02:12:00,
2013-10-09 21:15:00,70.8,47.8,29.18,SSW,200,0.0,0.0,44,0.00,,---,0.00,VWS V14.00,2013-10-10 02:15:00,
2013-10-09 21:21:00,70.8,47.8,29.18,SSW,200,0.0,0.0,44,0.00,,---,0.00,VWS V14.00,2013-10-10 02:21:00,
2013-10-09 21:24:00,70.8,47.8,29.18,SSW,200,0.0,0.0,44,0.00,,---,0.00,VWS V14.00,2013-10-10 02:24:00,
2013-10-09 21:30:00,70.6,48.2,29.18,SSW,202,0.0,0.0,45,0.00,,---,0.00,VWS V14.00,2013-10-10 02:30:00,
2013-10-09 21:32:00,70.6,48.2,29.21,SSW,202,0.0,0.0,45,0.00,,---,0.00,VWS V14.00,2013-10-10 02:32:00,
2013-10-09 21:33:00,70.6,48.2,29.21,SSW,202,0.0,0.0,45,0.00,,---,0.00,VWS V14.00,2013-10-10 02:33:00,
2013-10-09 21:39:00,70.2,49.1,29.21,SSW,202,0.0,0.0,47,0.00,,---,0.00,VWS V14.00,2013-10-10 02:39:00,
2013-10-09 21:45:00,70.0,48.9,29.21,SSW,202,0.0,0.0,47,0.00,,---,0.00,VWS V14.00,2013-10-10 02:45:00,
2013-10-09 21:47:00,70.0,48.9,29.21,SSW,202,0.0,0.0,47,0.00,,---,0.00,VWS V14.00,2013-10-10 02:47:00,
2013-10-09 21:48:00,70.0,48.9,29.21,SSW,202,0.0,0.0,47,0.00,,---,0.00,VWS V14.00,2013-10-10 02:48:00,
2013-10-09 21:54:00,70.0,48.9,29.21,SSW,202,0.0,0.0,47,0.00,,---,0.00,VWS V14.00,2013-10-10 02:54:00,
2013-10-09 21:57:00,69.7,48.6,29.21,SSW,202,0.0,0.0,47,0.00,,---,0.00,VWS V14.00,2013-10-10 02:57:00,
2013-10-09 22:00:00,69.7,48.6,29.21,SSW,202,0.0,0.0,47,0.00,,---,0.00,VWS V14.00,2013-10-10 03:00:00,
2013-10-09 22:02:00,69.5,48.4,29.21,SSW,202,0.0,0.0,47,0.00,,---,0.00,VWS V14.00,2013-10-10 03:02:00,
2013-10-09 22:06:00,69.5,49.0,29.21,SSW,202,0.0,0.0,48,0.00,,---,0.00,VWS V14.00,2013-10-10 03:06:00,
2013-10-09 22:10:00,69.3,48.8,29.21,SSW,202,0.0,0.0,48,0.00,,---,0.00,VWS V14.00,2013-10-10 03:10:00,
2013-10-09 22:13:00,69.3,48.8,29.21,SSW,202,0.0,0.0,48,0.00,,---,0.00,VWS V14.00,2013-10-10 03:13:00,
2013-10-09 22:17:00,69.1,48.1,29.21,SSW,202,0.0,0.0,47,0.00,,---,0.00,VWS V14.00,2013-10-10 03:17:00,
2013-10-09 22:19:00,69.1,48.1,29.21,SSW,202,0.0,0.0,47,0.00,,---,0.00,VWS V14.00,2013-10-10 03:19:00,
2013-10-09 22:22:00,69.1,48.1,29.21,SSW,202,0.0,0.0,47,0.00,,---,0.00,VWS V14.00,2013-10-10 03:22:00,
2013-10-09 22:25:00,69.0,47.9,29.21,SSW,202,0.0,0.0,47,0.00,,---,0.00,VWS V14.00,2013-10-10 03:25:00,
2013-10-09 22:28:00,69.0,47.9,29.21,SSW,202,0.0,0.0,47,0.00,,---,0.00,VWS V14.00,2013-10-10 03:28:00,
2013-10-09 22:31:00,68.8,47.8,29.21,SSW,202,0.0,0.0,47,0.00,,---,0.00,VWS V14.00,2013-10-10 03:31:00,
2013-10-09 22:33:00,68.8,48.3,29.21,SSW,202,0.0,0.0,48,0.00,,---,0.00,VWS V14.00,2013-10-10 03:33:00,
2013-10-09 22:37:00,68.8,48.3,29.21,SSW,202,0.0,0.0,48,0.00,,---,0.00,VWS V14.00,2013-10-10 03:37:00,
2013-10-09 22:40:00,68.6,48.7,29.21,SSW,202,0.0,0.0,49,0.00,,---,0.00,VWS V14.00,2013-10-10 03:40:00,
2013-10-09 22:43:00,68.4,49.1,29.21,SSW,202,0.0,0.0,50,0.00,,---,0.00,VWS V14.00,2013-10-10 03:43:00,
2013-10-09 22:47:00,68.4,49.1,29.21,SSW,202,0.0,0.0,50,0.00,,---,0.00,VWS V14.00,2013-10-10 03:47:00,
2013-10-09 22:52:00,68.2,48.9,29.21,SSW,202,0.0,0.0,50,0.00,,---,0.00,VWS V14.00,2013-10-10 03:52:00,
2013-10-09 22:55:00,68.2,49.4,29.21,SSW,202,0.0,0.0,51,0.00,,---,0.00,VWS V14.00,2013-10-10 03:55:00,
2013-10-09 22:58:00,68.2,49.4,29.21,SSW,202,0.0,0.0,51,0.00,,---,0.00,VWS V14.00,2013-10-10 03:58:00,
2013-10-09 23:01:00,68.2,49.4,29.21,SSW,202,0.0,0.0,51,0.00,,---,0.00,VWS V14.00,2013-10-10 04:01:00,
2013-10-09 23:02:00,68.2,49.4,29.21,SSW,202,0.0,0.0,51,0.00,,---,0.00,VWS V14.00,2013-10-10 04:02:00,
2013-10-09 23:04:00,67.9,49.6,29.21,SSW,202,0.0,0.0,52,0.00,,---,0.00,VWS V14.00,2013-10-10 04:04:00,
2013-10-09 23:10:00,67.9,49.6,29.21,SSW,202,0.0,0.0,52,0.00,,---,0.00,VWS V14.00,2013-10-10 04:10:00,
2013-10-09 23:13:00,67.7,49.5,29.21,SSW,202,0.0,0.0,52,0.00,,---,0.00,VWS V14.00,2013-10-10 04:13:00,
2013-10-09 23:16:00,67.7,49.5,29.21,SSW,202,0.0,0.0,52,0.00,,---,0.00,VWS V14.00,2013-10-10 04:16:00,
2013-10-09 23:18:00,67.7,49.5,29.21,SSW,202,0.0,0.0,52,0.00,,---,0.00,VWS V14.00,2013-10-10 04:18:00,
2013-10-09 23:19:00,67.5,49.8,29.21,SSW,202,0.0,0.0,53,0.00,,---,0.00,VWS V14.00,2013-10-10 04:19:00,
2013-10-09 23:22:00,67.5,49.8,29.21,SSW,202,0.0,0.0,53,0.00,,---,0.00,VWS V14.00,2013-10-10 04:22:00,
2013-10-09 23:25:00,67.5,49.8,29.21,SSW,202,0.0,0.0,53,0.00,,---,0.00,VWS V14.00,2013-10-10 04:25:00,
2013-10-09 23:31:00,67.3,49.6,29.21,SSW,202,0.0,0.0,53,0.00,,---,0.00,VWS V14.00,2013-10-10 04:31:00,
2013-10-09 23:33:00,67.2,49.5,29.21,SSW,202,0.0,0.0,53,0.00,,---,0.00,VWS V14.00,2013-10-10 04:33:00,
2013-10-09 23:34:00,67.2,49.5,29.21,SSW,202,0.0,0.0,53,0.00,,---,0.00,VWS V14.00,2013-10-10 04:34:00,
2013-10-09 23:37:00,67.2,49.5,29.21,SSW,202,0.0,0.0,53,0.00,,---,0.00,VWS V14.00,2013-10-10 04:37:00,
2013-10-09 23:40:00,67.2,49.5,29.21,SSW,202,0.0,0.0,53,0.00,,---,0.00,VWS V14.00,2013-10-10 04:40:00,
2013-10-09 23:43:00,67.2,49.5,29.21,SSW,202,0.0,0.0,53,0.00,,---,0.00,VWS V14.00,2013-10-10 04:43:00,
2013-10-09 23:48:00,67.0,49.8,29.21,SSW,202,0.0,0.0,54,0.00,,---,0.00,VWS V14.00,2013-10-10 04:48:00,
2013-10-09 23:49:00,67.0,49.8,29.21,SSW,202,0.0,0.0,54,0.00,,---,0.00,VWS V14.00,2013-10-10 04:49:00,
2013-10-09 23:55:00,66.6,50.0,29.21,SSW,202,0.0,0.0,55,0.00,,---,0.00,VWS V14.00,2013-10-10 04:55:00,
2013-10-09 23:58:00,66.6,50.0,29.21,SSW,202,0.0,0.0,55,0.00,,---,0.00,VWS V14.00,2013-10-10 04:58:00,